| time (UTC) | temp F | wind direction | speed knots | gust knots | rain 1hr in | rain 24hr in | rain mn in | humidity % | barometer mb |
| 20260503004756 | 0 | 0.0 | 0.0 | 0.00 | 0.00 | 0.00 | 1012.7 | ||
| 20260503003754 | 0 | 0.0 | 0.0 | 0.00 | 0.00 | 0.00 | 1013.1 | ||
| 20260503002756 | 0 | 0.0 | 0.0 | 0.00 | 0.00 | 0.00 | 1013.6 | ||
| 20260503001753 | 0 | 0.0 | 0.0 | 0.00 | 0.00 | 0.00 | 1014.1 | ||
| 20260503000753 | 54 | 0.0 | 0.0 | 0.00 | 0.00 | 0.00 | 94 | 1014.4 | |
| 20260502235754 | 0 | 0.0 | 0.0 | 0.00 | 0.00 | 0.00 | 1014.1 | ||
| 20260502234755 | 0 | 108 | 0.9 | 3.5 | 0.00 | 0.00 | 0.00 | 1014.2 | |
| 20260502233753 | 0 | 108 | 2.6 | 3.5 | 0.00 | 0.00 | 0.00 | 1014.0 | |
| 20260502232753 | 0 | 108 | 0.9 | 3.5 | 0.00 | 0.00 | 0.00 | 1013.8 | |
| 20260502231753 | 53 | 89 | 0.9 | 5.2 | 0.00 | 0.00 | 0.00 | 95 | 1013.7 |
| 20260502231239 | 53 | 101 | 1.7 | 5.2 | 0.00 | 0.00 | 0.00 | 95 | 1014.1 |
| 20260502225754 | 53 | 156 | 4.3 | 6.1 | 0.00 | 0.00 | 0.00 | 95 | 1014.4 |
| 20260502224753 | 53 | 85 | 1.7 | 2.6 | 0.00 | 0.00 | 0.00 | 95 | 1013.7 |
| 20260502223754 | 0 | 68 | 0.9 | 2.6 | 0.00 | 0.00 | 0.00 | 1013.9 | |
| 20260502222753 | 52 | 68 | 0.0 | 2.6 | 0.00 | 0.00 | 0.00 | 95 | 1013.9 |
| 20260502222236 | 52 | 64 | 1.7 | 3.5 | 0.00 | 0.00 | 0.00 | 95 | 1013.9 |
| 20260502221711 | 53 | 62 | 1.7 | 3.5 | 0.00 | 0.00 | 0.00 | 95 | 1013.7 |
| 20260502215753 | 53 | 67 | 1.7 | 3.5 | 0.00 | 0.00 | 0.00 | 95 | 1013.9 |
| 20260502214754 | 53 | 37 | 0.9 | 2.6 | 0.00 | 0.00 | 0.00 | 95 | 1014.0 |
| 20260502213753 | 53 | 43 | 0.9 | 2.6 | 0.00 | 0.00 | 0.00 | 95 | 1014.1 |
| 20260502212753 | 53 | 43 | 0.9 | 2.6 | 0.00 | 0.00 | 0.00 | 94 | 1014.2 |
| 20260502211753 | 53 | 34 | 0.9 | 1.7 | 0.00 | 0.00 | 0.00 | 93 | 1014.4 |
| 20260502210755 | 53 | 34 | 0.0 | 0.0 | 0.00 | 0.00 | 0.00 | 93 | 1014.5 |
| 20260502205753 | 53 | 34 | 0.0 | 0.9 | 0.00 | 0.00 | 0.00 | 92 | 1014.5 |
| 20260502204752 | 53 | 34 | 0.0 | 1.7 | 0.00 | 0.00 | 0.00 | 92 | 1014.6 |
| 20260502203755 | 54 | 34 | 0.0 | 2.6 | 0.00 | 0.00 | 0.00 | 91 | 1014.7 |
| 20260502202754 | 55 | 20 | 0.9 | 2.6 | 0.00 | 0.00 | 0.00 | 90 | 1014.7 |
| 20260502201754 | 55 | 19 | 0.9 | 4.3 | 0.00 | 0.00 | 0.00 | 90 | 1014.8 |
| 20260502201227 | 55 | 322 | 0.9 | 5.2 | 0.00 | 0.00 | 0.00 | 90 | 1014.9 |
| 20260502195752 | 55 | 346 | 1.7 | 4.3 | 0.00 | 0.00 | 0.00 | 90 | 1014.9 |
| 20260502194750 | 56 | 336 | 1.7 | 4.3 | 0.00 | 0.00 | 0.00 | 90 | 1014.9 |
| 20260502193750 | 56 | 324 | 1.7 | 4.3 | 0.00 | 0.00 | 0.00 | 89 | 1014.9 |
| 20260502192747 | 57 | 17 | 2.6 | 6.1 | 0.00 | 0.00 | 0.00 | 89 | 1014.9 |
| 20260502192225 | 57 | 355 | 2.6 | 4.3 | 0.00 | 0.00 | 0.00 | 89 | 1015.0 |
| 20260502191229 | 58 | 324 | 3.5 | 5.2 | 0.00 | 0.00 | 0.00 | 88 | 1014.9 |
| 20260502185745 | 58 | 324 | 3.5 | 6.1 | 0.00 | 0.00 | 0.00 | 88 | 1014.9 |
| 20260502183743 | 60 | 341 | 5.2 | 8.7 | 0.00 | 0.00 | 0.00 | 85 | 1015.0 |
| 20260502182744 | 60 | 315 | 5.2 | 9.6 | 0.00 | 0.00 | 0.00 | 81 | 1015.1 |
| 20260502181741 | 61 | 310 | 5.2 | 7.8 | 0.00 | 0.00 | 0.00 | 78 | 1014.9 |
| 20260502180741 | 61 | 328 | 4.3 | 6.1 | 0.00 | 0.00 | 0.00 | 75 | 1015.1 |
| 20260502180231 | 0 | 324 | 3.5 | 7.8 | 0.00 | 0.00 | 0.00 | 1015.1 | |
| 20260502163729 | 66 | 281 | 3.5 | 8.7 | 0.00 | 0.00 | 0.00 | 66 | 1015.6 |
| 20260502163159 | 66 | 260 | 4.3 | 9.6 | 0.00 | 0.00 | 0.00 | 67 | 1015.7 |
| 20260502161727 | 66 | 317 | 3.5 | 8.7 | 0.00 | 0.00 | 0.00 | 70 | 1015.8 |
| 20260502160728 | 67 | 269 | 3.5 | 9.6 | 0.00 | 0.00 | 0.00 | 72 | 1015.8 |
| 20260502151721 | 68 | 274 | 4.3 | 12.2 | 0.00 | 0.00 | 0.00 | 75 | 1016.1 |
| 20260502150722 | 68 | 263 | 7.0 | 12.2 | 0.00 | 0.00 | 0.00 | 74 | 1016.2 |
| 20260502130711 | 70 | 274 | 7.8 | 16.5 | 0.00 | 0.00 | 0.00 | 70 | 1016.8 |
| 20260502123707 | 70 | 222 | 9.6 | 14.8 | 0.00 | 0.00 | 0.00 | 70 | 1016.9 |
| 20260502122706 | 70 | 270 | 6.1 | 13.0 | 0.00 | 0.00 | 0.00 | 72 | 1016.9 |
| 20260502121706 | 69 | 276 | 6.1 | 12.2 | 0.00 | 0.00 | 0.00 | 72 | 1017.1 |
| 20260502120704 | 70 | 249 | 7.8 | 12.2 | 0.00 | 0.00 | 0.00 | 71 | 1017.2 |
| 20260502115704 | 70 | 249 | 5.2 | 12.2 | 0.00 | 0.00 | 0.00 | 71 | 1017.2 |
| 20260502114704 | 69 | 290 | 2.6 | 10.4 | 0.00 | 0.00 | 0.00 | 71 | 1017.3 |
| 20260502113703 | 68 | 210 | 5.2 | 11.3 | 0.00 | 0.00 | 0.00 | 70 | 1017.5 |
| 20260502112705 | 68 | 281 | 5.2 | 11.3 | 0.00 | 0.00 | 0.00 | 73 | 1017.5 |
| 20260502111705 | 67 | 248 | 4.3 | 9.6 | 0.00 | 0.00 | 0.00 | 71 | 1017.7 |
| 20260502111142 | 67 | 245 | 4.3 | 7.8 | 0.00 | 0.00 | 0.00 | 74 | 1017.5 |
| 20260502105706 | 64 | 291 | 2.6 | 8.7 | 0.00 | 0.00 | 0.00 | 74 | 1017.6 |
| 20260502104705 | 63 | 202 | 5.2 | 7.8 | 0.00 | 0.00 | 0.00 | 74 | 1017.7 |
| 20260502103705 | 62 | 242 | 3.5 | 4.3 | 0.00 | 0.00 | 0.00 | 75 | 1017.6 |
| 20260502102704 | 62 | 257 | 3.5 | 5.2 | 0.00 | 0.00 | 0.00 | 75 | 1017.4 |
| 20260502101705 | 61 | 233 | 1.7 | 4.3 | 0.00 | 0.00 | 0.00 | 76 | 1017.5 |
| 20260502100706 | 60 | 255 | 3.5 | 6.1 | 0.00 | 0.00 | 0.00 | 75 | 1017.7 |
| 20260502091142 | 62 | 222 | 4.3 | 7.8 | 0.00 | 0.00 | 0.00 | 72 | 1018.0 |
| 20260502070657 | 59 | 201 | 3.5 | 6.1 | 0.00 | 0.00 | 0.00 | 71 | 1017.9 |
| 20260502065659 | 58 | 176 | 3.5 | 6.1 | 0.00 | 0.00 | 0.00 | 70 | 1017.9 |
| 20260502064658 | 57 | 184 | 3.5 | 7.8 | 0.00 | 0.00 | 0.00 | 71 | 1017.9 |
| 20260502063657 | 57 | 191 | 4.3 | 7.8 | 0.00 | 0.00 | 0.00 | 72 | 1017.8 |
| 20260502062657 | 56 | 170 | 3.5 | 6.1 | 0.00 | 0.00 | 0.00 | 73 | 1017.7 |
| 20260502061658 | 55 | 166 | 4.3 | 6.1 | 0.00 | 0.00 | 0.00 | 74 | 1017.7 |
| 20260502060659 | 54 | 159 | 2.6 | 4.3 | 0.00 | 0.00 | 0.00 | 75 | 1017.7 |
| 20260502055657 | 53 | 176 | 2.6 | 4.3 | 0.00 | 0.00 | 0.00 | 77 | 1017.7 |
| 20260502054656 | 52 | 177 | 1.7 | 4.3 | 0.00 | 0.00 | 0.00 | 78 | 1017.8 |
| 20260502053658 | 51 | 138 | 2.6 | 7.8 | 0.00 | 0.00 | 0.00 | 78 | 1017.8 |
| 20260502052657 | 50 | 188 | 2.6 | 4.3 | 0.00 | 0.00 | 0.00 | 81 | 1017.9 |
| 20260502051659 | 49 | 179 | 2.6 | 5.2 | 0.00 | 0.00 | 0.00 | 82 | 1017.9 |
| 20260502050656 | 48 | 160 | 1.7 | 3.5 | 0.00 | 0.00 | 0.00 | 82 | 1017.8 |
| 20260502045657 | 48 | 163 | 2.6 | 3.5 | 0.00 | 0.00 | 0.00 | 83 | 1017.9 |
| 20260502044659 | 47 | 152 | 1.7 | 4.3 | 0.00 | 0.00 | 0.00 | 84 | 1017.9 |
| 20260502043658 | 46 | 170 | 2.6 | 3.5 | 0.00 | 0.00 | 0.00 | 85 | 1017.8 |
| 20260502042657 | 46 | 163 | 1.7 | 3.5 | 0.00 | 0.00 | 0.00 | 85 | 1017.9 |
| 20260502041658 | 46 | 157 | 2.6 | 3.5 | 0.00 | 0.00 | 0.00 | 86 | 1017.8 |
| 20260502040657 | 46 | 171 | 2.6 | 4.3 | 0.00 | 0.00 | 0.00 | 86 | 1017.9 |
| 20260502035658 | 46 | 150 | 1.7 | 3.5 | 0.00 | 0.00 | 0.00 | 85 | 1018.2 |
| 20260502034657 | 46 | 136 | 1.7 | 3.5 | 0.00 | 0.00 | 0.00 | 85 | 1018.2 |
| 20260502033658 | 47 | 139 | 1.7 | 2.6 | 0.00 | 0.00 | 0.00 | 85 | 1018.2 |
| 20260502032659 | 47 | 135 | 1.7 | 3.5 | 0.00 | 0.00 | 0.00 | 85 | 1018.3 |
| 20260502032142 | 47 | 139 | 1.7 | 3.5 | 0.00 | 0.00 | 0.00 | 84 | 1018.3 |
| 20260502031148 | 47 | 139 | 1.7 | 3.5 | 0.00 | 0.00 | 0.00 | 84 | 1018.3 |
| 20260502025659 | 47 | 139 | 1.7 | 3.5 | 0.00 | 0.00 | 0.00 | 84 | 1018.4 |
| 20260502024656 | 48 | 136 | 1.7 | 3.5 | 0.00 | 0.00 | 0.00 | 83 | 1018.4 |
| 20260502023657 | 48 | 140 | 1.7 | 3.5 | 0.00 | 0.00 | 0.00 | 82 | 1018.5 |
| 20260502022655 | 48 | 138 | 1.7 | 3.5 | 0.00 | 0.00 | 0.00 | 82 | 1018.6 |
| 20260502021658 | 49 | 135 | 2.6 | 3.5 | 0.00 | 0.00 | 0.00 | 82 | 1018.6 |
| 20260502015655 | 49 | 143 | 2.6 | 3.5 | 0.00 | 0.00 | 0.00 | 82 | 1018.8 |
| 20260502014654 | 49 | 132 | 1.7 | 3.5 | 0.00 | 0.00 | 0.00 | 82 | 1018.8 |
| 20260502013702 | 50 | 129 | 1.7 | 3.5 | 0.00 | 0.00 | 0.00 | 82 | 1018.9 |
| 20260502012652 | 50 | 131 | 1.7 | 3.5 | 0.00 | 0.00 | 0.00 | 82 | 1019.0 |
| 20260502011654 | 50 | 125 | 1.7 | 3.5 | 0.00 | 0.00 | 0.00 | 81 | 1019.1 |
| 20260502010655 | 50 | 133 | 2.6 | 3.5 | 0.00 | 0.00 | 0.00 | 81 | 1019.3 |
| 20260502005652 | 50 | 133 | 1.7 | 3.5 | 0.00 | 0.00 | 0.00 | 81 | 1019.5 |